Time,TemperatureF,DewpointF,PressureIn,WindDirection,WindDirectionDegrees,WindSpeedMPH,WindSpeedGustMPH,Humidity,HourlyPrecipIn,Conditions,Clouds,dailyrainin,SoftwareType,DateUTC
2013-03-04 00:01:00,34.0,21.0,30.00,East,100,6.0,-999.0,59,-99.99,,,-99.99,,2013-03-04 06:01:00,
2013-03-04 00:11:00,34.0,21.0,30.00,East,100,6.0,-999.0,59,-99.99,,,-99.99,,2013-03-04 06:11:00,
2013-03-04 00:21:00,34.0,21.0,30.00,ESE,110,5.0,-999.0,59,-99.99,,,-99.99,,2013-03-04 06:21:00,
2013-03-04 00:32:00,34.0,21.0,30.00,ESE,110,5.0,-999.0,59,-99.99,,,-99.99,,2013-03-04 06:32:00,
2013-03-04 00:42:00,34.0,23.0,29.99,East,100,6.0,-999.0,64,-99.99,,,-99.99,,2013-03-04 06:42:00,
2013-03-04 00:52:00,34.0,23.0,29.98,East,90,6.0,-999.0,64,-99.99,,,-99.99,,2013-03-04 06:52:00,
2013-03-04 01:01:00,34.0,23.0,29.98,East,90,8.0,-999.0,64,-99.99,,,-99.99,,2013-03-04 07:01:00,
2013-03-04 01:11:00,34.0,23.0,29.98,East,90,8.0,-999.0,64,-99.99,,,-99.99,,2013-03-04 07:11:00,
2013-03-04 01:21:00,34.0,23.0,29.96,East,90,9.0,-999.0,64,-99.99,,,-99.99,,2013-03-04 07:21:00,
2013-03-04 01:32:00,34.0,25.0,29.96,East,90,10.0,16.0,69,-99.99,,,-99.99,,2013-03-04 07:32:00,
2013-03-04 01:41:00,34.0,25.0,29.95,East,100,14.0,-999.0,69,-99.99,,,-99.99,,2013-03-04 07:41:00,
2013-03-04 01:52:00,34.0,25.0,29.95,East,100,14.0,18.0,69,-99.99,,,-99.99,,2013-03-04 07:52:00,
2013-03-04 02:02:00,34.0,25.0,29.95,East,100,13.0,20.0,69,-99.99,,,-99.99,,2013-03-04 08:02:00,
2013-03-04 02:11:00,34.0,25.0,29.95,East,100,13.0,20.0,69,-99.99,,,-99.99,,2013-03-04 08:11:00,
2013-03-04 02:21:00,34.0,27.0,29.96,East,100,10.0,-999.0,74,-99.99,,,-99.99,,2013-03-04 08:21:00,
2013-03-04 02:32:00,34.0,27.0,29.95,East,100,7.0,-999.0,74,-99.99,,,-99.99,,2013-03-04 08:32:00,
2013-03-04 02:41:00,34.0,27.0,29.95,East,100,8.0,-999.0,74,-99.99,,,-99.99,,2013-03-04 08:41:00,
2013-03-04 02:52:00,34.0,27.0,29.94,East,100,9.0,17.0,74,-99.99,,,-99.99,,2013-03-04 08:52:00,
2013-03-04 03:01:00,34.0,27.0,29.94,East,100,9.0,-999.0,74,-99.99,,,-99.99,,2013-03-04 09:01:00,
2013-03-04 03:11:00,34.0,27.0,29.94,East,100,9.0,-999.0,74,-99.99,,,-99.99,,2013-03-04 09:11:00,
2013-03-04 03:21:00,34.0,27.0,29.92,East,100,10.0,16.0,74,-99.99,,,-99.99,,2013-03-04 09:21:00,
2013-03-04 03:31:00,34.0,27.0,29.92,East,100,10.0,16.0,74,-99.99,,,-99.99,,2013-03-04 09:31:00,
2013-03-04 03:42:00,34.0,27.0,29.90,ESE,110,10.0,18.0,74,-99.99,,,-99.99,,2013-03-04 09:42:00,
2013-03-04 03:52:00,34.0,27.0,29.90,East,100,12.0,17.0,74,-99.99,,,-99.99,,2013-03-04 09:52:00,
2013-03-04 04:01:00,34.0,27.0,29.90,ESE,110,14.0,18.0,74,-99.99,,,-99.99,,2013-03-04 10:01:00,
2013-03-04 04:11:00,34.0,27.0,29.90,ESE,110,14.0,18.0,74,-99.99,,,-99.99,,2013-03-04 10:11:00,
2013-03-04 04:21:00,34.0,27.0,29.90,ESE,110,14.0,18.0,74,-99.99,,,-99.99,,2013-03-04 10:21:00,
2013-03-04 04:32:00,34.0,27.0,29.90,ESE,110,10.0,16.0,74,-99.99,,,-99.99,,2013-03-04 10:32:00,
2013-03-04 04:42:00,34.0,27.0,29.90,ESE,110,13.0,18.0,74,-99.99,,,-99.99,,2013-03-04 10:42:00,
2013-03-04 04:52:00,34.0,27.0,29.89,ESE,110,9.0,18.0,74,-99.99,,,-99.99,,2013-03-04 10:52:00,
2013-03-04 05:01:00,34.0,27.0,29.89,East,100,12.0,17.0,74,-99.99,,,-99.99,,2013-03-04 11:01:00,
2013-03-04 05:11:00,34.0,27.0,29.89,East,100,12.0,17.0,74,-99.99,,,-99.99,,2013-03-04 11:11:00,
2013-03-04 05:21:00,34.0,27.0,29.89,ESE,110,10.0,18.0,74,-99.99,,,-99.99,,2013-03-04 11:21:00,
2013-03-04 05:32:00,34.0,27.0,29.89,ESE,110,10.0,18.0,74,-99.99,,,-99.99,,2013-03-04 11:32:00,
2013-03-04 05:42:00,34.0,27.0,29.88,ESE,110,10.0,18.0,74,-99.99,,,-99.99,,2013-03-04 11:42:00,
2013-03-04 05:52:00,34.0,27.0,29.88,ESE,110,10.0,18.0,74,-99.99,,,-99.99,,2013-03-04 11:52:00,
2013-03-04 06:01:00,34.0,27.0,29.88,ESE,110,12.0,-999.0,74,-99.99,,,-99.99,,2013-03-04 12:01:00,
2013-03-04 06:11:00,34.0,27.0,29.88,ESE,110,12.0,-999.0,74,-99.99,,,-99.99,,2013-03-04 12:11:00,
2013-03-04 06:22:00,34.0,27.0,29.87,ESE,120,12.0,18.0,74,-99.99,,,-99.99,,2013-03-04 12:22:00,
2013-03-04 06:32:00,34.0,25.0,29.87,ESE,120,12.0,20.0,69,-99.99,,,-99.99,,2013-03-04 12:32:00,
2013-03-04 06:42:00,34.0,25.0,29.87,ESE,110,12.0,22.0,69,-99.99,,,-99.99,,2013-03-04 12:42:00,
2013-03-04 06:53:00,34.0,25.0,29.86,ESE,120,9.0,16.0,69,-99.99,,,-99.99,,2013-03-04 12:53:00,
2013-03-04 07:02:00,34.0,25.0,29.86,ESE,120,12.0,17.0,69,-99.99,,,-99.99,,2013-03-04 13:02:00,
2013-03-04 07:11:00,34.0,25.0,29.86,ESE,120,12.0,17.0,69,-99.99,,,-99.99,,2013-03-04 13:11:00,
2013-03-04 07:21:00,34.0,25.0,29.85,ESE,110,12.0,20.0,69,-99.99,,,-99.99,,2013-03-04 13:21:00,
2013-03-04 07:32:00,34.0,25.0,29.86,ESE,120,13.0,20.0,69,-99.99,,,-99.99,,2013-03-04 13:32:00,
2013-03-04 07:41:00,36.0,25.0,29.85,ESE,120,12.0,-999.0,64,-99.99,,,-99.99,,2013-03-04 13:41:00,
2013-03-04 07:52:00,36.0,25.0,29.86,ESE,110,10.0,20.0,64,-99.99,,,-99.99,,2013-03-04 13:52:00,
2013-03-04 08:01:00,36.0,25.0,29.85,ESE,120,13.0,17.0,64,-99.99,,,-99.99,,2013-03-04 14:01:00,
2013-03-04 08:11:00,36.0,25.0,29.85,ESE,120,13.0,17.0,64,-99.99,,,-99.99,,2013-03-04 14:11:00,
2013-03-04 08:22:00,36.0,25.0,29.85,ESE,120,15.0,20.0,64,-99.99,,,-99.99,,2013-03-04 14:22:00,
2013-03-04 08:32:00,36.0,25.0,29.85,ESE,120,13.0,18.0,64,-99.99,,,-99.99,,2013-03-04 14:32:00,
2013-03-04 08:42:00,37.0,25.0,29.85,ESE,120,13.0,18.0,60,-99.99,,,-99.99,,2013-03-04 14:42:00,
2013-03-04 08:52:00,37.0,25.0,29.85,ESE,120,13.0,18.0,60,-99.99,,,-99.99,,2013-03-04 14:52:00,
2013-03-04 09:01:00,39.0,25.0,29.85,ESE,120,10.0,16.0,55,-99.99,,,-99.99,,2013-03-04 15:01:00,
2013-03-04 09:11:00,39.0,25.0,29.85,ESE,120,10.0,16.0,55,-99.99,,,-99.99,,2013-03-04 15:11:00,
2013-03-04 09:21:00,39.0,23.0,29.84,SE,130,14.0,18.0,51,-99.99,,,-99.99,,2013-03-04 15:21:00,
2013-03-04 09:32:00,39.0,23.0,29.84,ESE,120,10.0,21.0,51,-99.99,,,-99.99,,2013-03-04 15:32:00,
2013-03-04 09:42:00,39.0,23.0,29.84,ESE,120,9.0,21.0,51,-99.99,,,-99.99,,2013-03-04 15:42:00,
2013-03-04 09:52:00,41.0,23.0,29.84,ESE,110,9.0,18.0,48,-99.99,,,-99.99,,2013-03-04 15:52:00,
2013-03-04 10:02:00,41.0,23.0,29.84,ESE,120,13.0,16.0,48,-99.99,,,-99.99,,2013-03-04 16:02:00,
2013-03-04 10:11:00,41.0,23.0,29.84,ESE,120,13.0,16.0,48,-99.99,,,-99.99,,2013-03-04 16:11:00,
2013-03-04 10:21:00,41.0,23.0,29.83,ESE,110,10.0,17.0,48,-99.99,,,-99.99,,2013-03-04 16:21:00,
2013-03-04 10:32:00,43.0,23.0,29.83,East,100,9.0,17.0,45,-99.99,,,-99.99,,2013-03-04 16:32:00,
2013-03-04 10:42:00,43.0,23.0,29.83,ESE,110,8.0,-999.0,45,-99.99,,,-99.99,,2013-03-04 16:42:00,
2013-03-04 10:52:00,43.0,23.0,29.82,East,100,8.0,-999.0,45,-99.99,,,-99.99,,2013-03-04 16:52:00,
2013-03-04 11:02:00,43.0,23.0,29.82,East,100,8.0,-999.0,45,-99.99,,,-99.99,,2013-03-04 17:02:00,
2013-03-04 11:11:00,43.0,23.0,29.82,East,100,8.0,-999.0,45,-99.99,,,-99.99,,2013-03-04 17:11:00,
2013-03-04 11:22:00,43.0,23.0,29.81,ESE,120,8.0,18.0,45,-99.99,,,-99.99,,2013-03-04 17:22:00,
2013-03-04 11:32:00,43.0,23.0,29.82,ESE,120,12.0,16.0,45,-99.99,,,-99.99,,2013-03-04 17:32:00,
2013-03-04 11:42:00,43.0,23.0,29.82,ESE,120,8.0,-999.0,45,-99.99,,,-99.99,,2013-03-04 17:42:00,
2013-03-04 11:52:00,43.0,23.0,29.82,SE,130,10.0,-999.0,45,-99.99,,,-99.99,,2013-03-04 17:52:00,
2013-03-04 12:01:00,43.0,23.0,29.82,ESE,120,8.0,16.0,45,-99.99,,,-99.99,,2013-03-04 18:01:00,
2013-03-04 12:11:00,43.0,23.0,29.82,ESE,120,8.0,16.0,45,-99.99,,,-99.99,,2013-03-04 18:11:00,
2013-03-04 12:21:00,43.0,23.0,29.82,ESE,120,8.0,16.0,45,-99.99,,,-99.99,,2013-03-04 18:21:00,
2013-03-04 12:32:00,45.0,23.0,29.81,ESE,120,12.0,-999.0,42,-99.99,,,-99.99,,2013-03-04 18:32:00,
2013-03-04 12:42:00,45.0,23.0,29.80,ESE,120,10.0,-999.0,42,-99.99,,,-99.99,,2013-03-04 18:42:00,
2013-03-04 12:52:00,45.0,23.0,29.80,ESE,110,14.0,17.0,42,-99.99,,,-99.99,,2013-03-04 18:52:00,
2013-03-04 13:02:00,45.0,23.0,29.80,ESE,120,10.0,-999.0,42,-99.99,,,-99.99,,2013-03-04 19:02:00,
2013-03-04 13:11:00,45.0,23.0,29.80,ESE,120,10.0,-999.0,42,-99.99,,,-99.99,,2013-03-04 19:11:00,
2013-03-04 13:21:00,45.0,23.0,29.79,ESE,120,12.0,-999.0,42,-99.99,,,-99.99,,2013-03-04 19:21:00,
2013-03-04 13:32:00,46.0,23.0,29.78,ESE,120,12.0,16.0,39,-99.99,,,-99.99,,2013-03-04 19:32:00,
2013-03-04 13:42:00,46.0,23.0,29.78,ESE,110,8.0,-999.0,39,-99.99,,,-99.99,,2013-03-04 19:42:00,
2013-03-04 13:52:00,48.0,23.0,29.78,East,90,12.0,16.0,36,-99.99,,,-99.99,,2013-03-04 19:52:00,
2013-03-04 14:01:00,46.0,23.0,29.78,East,90,10.0,-999.0,39,-99.99,,,-99.99,,2013-03-04 20:01:00,
2013-03-04 14:11:00,46.0,23.0,29.78,East,90,10.0,-999.0,39,-99.99,,,-99.99,,2013-03-04 20:11:00,
2013-03-04 14:22:00,46.0,25.0,29.78,East,80,9.0,-999.0,42,-99.99,,,-99.99,,2013-03-04 20:22:00,
2013-03-04 14:32:00,45.0,25.0,29.79,East,80,8.0,-999.0,45,-99.99,,,-99.99,,2013-03-04 20:32:00,
2013-03-04 14:42:00,45.0,25.0,29.79,East,80,8.0,-999.0,45,-99.99,,,-99.99,,2013-03-04 20:42:00,
2013-03-04 14:52:00,45.0,25.0,29.79,East,80,8.0,-999.0,45,-99.99,,,-99.99,,2013-03-04 20:52:00,
2013-03-04 15:02:00,45.0,25.0,29.79,East,80,8.0,-999.0,45,-99.99,,,-99.99,,2013-03-04 21:02:00,
2013-03-04 15:11:00,45.0,25.0,29.79,East,80,8.0,-999.0,45,-99.99,,,-99.99,,2013-03-04 21:11:00,
2013-03-04 17:32:00,43.0,28.0,29.79,East,80,9.0,-999.0,56,-99.99,,,-99.99,,2013-03-04 23:32:00,
2013-03-04 17:42:00,41.0,28.0,29.80,ENE,70,7.0,-999.0,60,-99.99,,,-99.99,,2013-03-04 23:42:00,
2013-03-04 17:52:00,41.0,28.0,29.80,ENE,60,7.0,-999.0,60,-99.99,,,-99.99,,2013-03-04 23:52:00,
2013-03-04 18:02:00,39.0,28.0,29.80,ENE,70,8.0,-999.0,64,-99.99,,,-99.99,,2013-03-05 00:02:00,
2013-03-04 18:11:00,39.0,28.0,29.80,ENE,70,8.0,-999.0,64,-99.99,,,-99.99,,2013-03-05 00:11:00,
2013-03-04 18:21:00,39.0,28.0,29.81,ENE,60,7.0,-999.0,64,-99.99,,,-99.99,,2013-03-05 00:21:00,
2013-03-04 18:32:00,39.0,28.0,29.81,ENE,60,7.0,-999.0,64,-99.99,,,-99.99,,2013-03-05 00:32:00,
2013-03-04 18:42:00,39.0,28.0,29.82,NE,50,7.0,-999.0,64,-99.99,,,-99.99,,2013-03-05 00:42:00,
2013-03-04 18:52:00,39.0,28.0,29.83,ENE,60,8.0,-999.0,64,-99.99,,,-99.99,,2013-03-05 00:52:00,
2013-03-04 19:01:00,39.0,28.0,29.83,ENE,60,8.0,-999.0,64,-99.99,,,-99.99,,2013-03-05 01:01:00,
2013-03-04 19:12:00,39.0,28.0,29.83,ENE,60,8.0,-999.0,64,-99.99,,,-99.99,,2013-03-05 01:12:00,
2013-03-04 19:21:00,37.0,30.0,29.84,ENE,60,6.0,-999.0,74,-99.99,,,-99.99,,2013-03-05 01:21:00,
2013-03-04 19:32:00,37.0,28.0,29.84,ENE,60,8.0,-999.0,69,-99.99,,,-99.99,,2013-03-05 01:32:00,
2013-03-04 19:42:00,37.0,28.0,29.84,ENE,60,8.0,-999.0,69,-99.99,,,-99.99,,2013-03-05 01:42:00,
2013-03-04 19:52:00,37.0,28.0,29.83,ENE,70,8.0,-999.0,69,-99.99,,,-99.99,,2013-03-05 01:52:00,
2013-03-04 20:01:00,37.0,28.0,29.83,ENE,70,9.0,-999.0,69,-99.99,,,-99.99,,2013-03-05 02:01:00,
2013-03-04 20:11:00,37.0,28.0,29.83,ENE,70,9.0,-999.0,69,-99.99,,,-99.99,,2013-03-05 02:11:00,
2013-03-04 20:21:00,37.0,28.0,29.84,ENE,70,9.0,-999.0,69,-99.99,,,-99.99,,2013-03-05 02:21:00,
2013-03-04 20:32:00,37.0,28.0,29.84,ENE,70,10.0,-999.0,69,-99.99,,,-99.99,,2013-03-05 02:32:00,
2013-03-04 20:42:00,37.0,28.0,29.84,ENE,70,10.0,-999.0,69,-99.99,,,-99.99,,2013-03-05 02:42:00,
2013-03-04 20:52:00,37.0,28.0,29.84,East,80,9.0,-999.0,69,-99.99,,,-99.99,,2013-03-05 02:52:00,
2013-03-04 21:02:00,37.0,28.0,29.84,ENE,70,9.0,-999.0,69,-99.99,,,-99.99,,2013-03-05 03:02:00,
2013-03-04 21:12:00,37.0,28.0,29.84,ENE,70,9.0,-999.0,69,-99.99,,,-99.99,,2013-03-05 03:12:00,
2013-03-04 21:22:00,37.0,28.0,29.84,ENE,70,9.0,-999.0,69,-99.99,,,-99.99,,2013-03-05 03:22:00,
2013-03-04 21:32:00,37.0,28.0,29.85,ENE,70,9.0,-999.0,69,-99.99,,,-99.99,,2013-03-05 03:32:00,
2013-03-04 21:42:00,37.0,28.0,29.85,ENE,70,9.0,-999.0,69,-99.99,,,-99.99,,2013-03-05 03:42:00,
2013-03-04 21:52:00,37.0,28.0,29.85,ENE,70,9.0,-999.0,69,-99.99,,,-99.99,,2013-03-05 03:52:00,
2013-03-04 22:01:00,37.0,28.0,29.85,ENE,70,9.0,-999.0,69,-99.99,,,-99.99,,2013-03-05 04:01:00,
2013-03-04 22:11:00,37.0,28.0,29.85,ENE,70,9.0,-999.0,69,-99.99,,,-99.99,,2013-03-05 04:11:00,
2013-03-04 22:22:00,37.0,28.0,29.85,ENE,70,9.0,-999.0,69,-99.99,,,-99.99,,2013-03-05 04:22:00,
2013-03-04 22:32:00,36.0,28.0,29.85,ENE,70,7.0,-999.0,74,-99.99,,,-99.99,,2013-03-05 04:32:00,
2013-03-04 22:42:00,36.0,28.0,29.85,ENE,70,6.0,-999.0,74,-99.99,,,-99.99,,2013-03-05 04:42:00,
2013-03-04 22:52:00,36.0,28.0,29.85,ENE,60,6.0,-999.0,74,-99.99,,,-99.99,,2013-03-05 04:52:00,
2013-03-04 23:02:00,36.0,28.0,29.85,ENE,60,6.0,-999.0,74,-99.99,,,-99.99,,2013-03-05 05:02:00,
2013-03-04 23:11:00,36.0,28.0,29.85,ENE,60,6.0,-999.0,74,-99.99,,,-99.99,,2013-03-05 05:11:00,
2013-03-04 23:22:00,36.0,28.0,29.85,ENE,60,6.0,-999.0,74,-99.99,,,-99.99,,2013-03-05 05:22:00,
2013-03-04 23:31:00,36.0,28.0,29.85,NE,50,3.0,-999.0,74,-99.99,,,-99.99,,2013-03-05 05:31:00,
2013-03-04 23:42:00,36.0,28.0,29.85,NNE,30,3.0,-999.0,74,-99.99,,,-99.99,,2013-03-05 05:42:00,
2013-03-04 23:52:00,36.0,28.0,29.86,NNE,20,3.0,-999.0,74,-99.99,,,-99.99,,2013-03-05 05:52:00,